This demonstration page uses our WeatherBlox Daily Observations layout. Learn more.

39.92423, -83.80882

Hourly Observations for June 2, 2020

Temp ( °F °C ) Dew Point ( °F °C ) Humidity (%) Winds ( mph kmh ) Pressure ( in mb ) Visibility ( mi km ) Precip ( " mm )
12:56 am 00:56 Mostly Cloudy 65 18.3 47 8.3 52 52 SSW 6 9 30.11 1020 10 16.0934 0 0
1:56 am 01:56 Cloudy 64 17.8 49 9.4 58 58 Calm 30.11 1020 10 16.0934 0 0
2:56 am 02:56 Clear 64 17.8 48 8.9 56 56 S 5 7 30.1 1019 10 16.0934 0 0
3:56 am 03:56 Mostly Clear 62 16.7 48 8.9 60 60 SW 6 9 30.09 1019 10 16.0934 0 0
4:56 am 04:56 Clear 62 16.7 47 8.3 58 58 SW 8 13 30.08 1019 10 16.0934 0 0
5:56 am 05:56 Clear 62 16.7 47 8.3 58 58 SSW 8 13 30.06 1018 10 16.0934 0 0
6:56 am 06:56 Sunny 61 16.1 47 8.3 60 60 SW 9 15 30.07 1018 10 16.0934 0 0
7:56 am 07:56 Sunny 63 17.2 49 9.4 60 60 SW 7 11 30.08 1019 10 16.0934 0 0
8:56 am 08:56 Sunny 70 21.1 51 10.6 51 51 SW 13 20 30.07 1018 10 16.0934 0 0
9:56 am 09:56 Sunny 73 22.8 52 11.1 48 48 W 14 22 30.05 1018 10 16.0934 0 0
10:56 am 10:56 Sunny 76 24.4 55 12.8 48 48 W 14 22 30.03 1017 10 16.0934 0 0
11:56 am 11:56 Sunny 79 26.1 58 14.4 49 49 WSW 14 22 30.01 1016 10 16.0934 0 0
12:56 pm 12:56 Sunny 81 27.2 59 15 47 47 WSW 17 28 29.99 1016 7 11.26538 0 0
1:42 pm 13:42 Mostly Sunny 82 28 59 15 45 45 WSW 21 33 29.94 1014 8 12.87472 0 0
1:56 pm 13:56 Sunny 83 28.3 60 15.6 46 46 WSW 21 33 29.97 1015 10 16.0934 0 0
2:56 pm 14:56 Sunny 85 29.4 61 16.1 45 45 WSW 18 30 29.95 1014 9 14.48406 0 0
3:17 pm 15:17 Hazy 84 29 61 16 45 45 WSW 21 33 29.9 1012 2.5 4.02335 0 0
3:24 pm 15:24 Hazy 84 29 61 16 45 45 WSW 22 35 29.9 1012 1.25 2.011675 0 0
3:30 pm 15:30 Hazy 84 29 61 16 45 45 WSW 16 26 29.9 1012 4 6.43736 0 0
3:56 pm 15:56 Sunny 85 29.4 61 16.1 45 45 WSW 18 30 29.93 1014 10 16.0934 0 0
4:56 pm 16:56 Sunny 86 30 60 15.6 42 42 W 21 33 29.93 1013 10 16.0934 0 0
5:56 pm 17:56 Sunny 86 30 59 15 40 40 WSW 18 30 29.91 1013 10 16.0934 0 0
6:56 pm 18:56 Sunny 85 29.4 59 15 42 42 WSW 16 26 29.91 1013 10 16.0934 0 0
7:56 pm 19:56 Sunny 83 28.3 58 14.4 43 43 WSW 16 26 29.91 1013 10 16.0934 0 0
8:56 pm 20:56 Sunny 79 26.1 58 14.4 49 49 WSW 12 19 29.91 1013 10 16.0934 0 0
9:56 pm 21:56 Clear 77 25 58 14.4 52 52 WSW 13 20 29.91 1013 10 16.0934 0 0
10:56 pm 22:56 Clear 76 24.4 57 13.9 52 52 WSW 12 19 29.91 1013 10 16.0934 0 0
11:56 pm 23:56 Clear 76 24.4 57 13.9 52 52 WSW 13 20 29.91 1013 10 16.0934 0 0

Powered by AerisWeather